SCP
0 0 0 0 0 0 0 0 0 0 0 0 0 0 0 0 0 0 0 0 0 0 0 0 0 0 0 0 0 0 0 0 0 0 0 0 0 0 0 0 0 0 0 0
0 0 0 0 0 0 0 0 0 0 0 0 0 0 0 0 0 0 0 0 0 0 0 0 0 0 0 0 0 0 0 0 0 0 0 0 0 0 0 0 0 0 0 0
0 0 0 0 0 0 0 0 0 0 0 0 0 0 0 0 0 0 0 0 0 0 0 0 0 0 0 0 0 0 0 0 0 0 0 0 0 0 0 0 0 0 0 0
0 0 0 0 0 0 0 0 0 0 0 0 0 0 0 0 0 0 0 0 0 0 0 0 0 0 0 0 0 0 0 0 0 0 0 0 0 0 0 0 0 0 0 0
0 0 0 0 0 0 0 0 0 0 0 0 0 0 0 0 0 0 0 0 0 0 0 0 0 0 0 0 0 0 0 0 0 0 0 0 0 0 0 0 0 0 0 0
0 0 0 0 0 0 0 0 0 0 0 0 0 0 0 0 0 0 0 0 0 0 0 0 0 0 0 0 0 0 0 0 0 0 0 0 0 0 0 0 0 0 0 0
0 0 0 0 0 0 0 0 0 0 0 0 0 0 0 0 0 0 0 0 0 0 0 0 0 0 0 0 0 0 0 0 0 0 0 0 0 0 0 0 0 0 0 0
0 0 0 0 0 0 0 0 0 0 0 0 0 0 0 0 0 0 0 0 0 0 0 0 0 0 0 0 0 0 0 0 0 0 0 0 0 0 0 0 0 0 0 0
0 0 0 0 0 0 0 0 0 0 0 0 0 0 0 0 0 0 0 0 0 0 0 0 0 0 0 0 0 0 0 0 0 0 0 0 0 0 0 0 0 0 0 0
0 0 0 0 0 0 0 0 0 0 0 0 0 0 0 0 0 0 0 0 0 0 0 0 0 0 0 0 0 0 0 0 0 0 0 0 0 0 0 0 0 0 0 0
0 0 0 0 0 0 0 0 0 0 0 0 0 0 0 0 0 0 0 0 0 0 0 0 0 0 0 0 0 0 0 0 0 0 0 0 0 0 0 0 0 0 0 0
0 0 0 0 0 0 0 0 0 0 0 0 0 0 0 0 0 0 0 0 0 0 0 0 0 0 0 0 0 0 0 0 0 0 0 0 0 0 0 0 0 0 0 0
0 0 0 0 0 0 0 0 0 0 0 0 0 0 0 0 0 0 0 0 0 0 0 0 0 0 0 0 0 0 0 0 0 0 0 0 0 0 0 0 0 0 0 0
0 0 0 0 0 0 0 0 0 0 0 0 0 0 0 0 0 0 0 0 0 0 0 0 0 0 0 0 0 0 0 0 0 0 0 0 0 0 0 0 0 0 0 0
0 0 0 0 0 0 0 0 0 0 0 0 0 0 0 0 0 0 0 0 0 0 0 0 0 0 0 0 0 0 0 0 0 0 0 0 0 0 0 0 0 0 0 0
0 0 0 0 0 0 0 0 0 0 0 0 0 0 0 0 0 0 0 0 0 0 0 0 0 0 0 0 0 0 0 0 0 0 0 0 0 0 0 0 0 0 0 0
0 0 0 0 0 0 0 0 0 0 0 0 0 0 0 0 0 0 0 0 0 0 0 0 0 0 0 0 0 0 0 0 0 0 0 0 0 0 0 0 0 0 0 0
0 0 0 0 0 0 0 0 0 0 0 0 0 0 0 0 0 0 0 0 0 0 0 0 0 0 0 0 0 0 0 0 0 0 0 0 0 0 0 0 0 0 0 0
0 0 0 0 0 0 0 0 0 0 0 0 0 0 0 0 0 0 0 0 0 0 0 0 0 0 0 0 0 0 0 0 0 0 0 0 0 0 0 0 0 0 0 0
0 0 0 0 0 0 0 0 0 0 0 0 0 0 0 0 0 0 0 0 0 0 0 0 0 0 0 0 0 0 0 0 0 0 0 0 0 0 0 0 0 0 0 0
0 0 0 0 0 0 0 0 0 0 0 0 0 0 0 0 0 0 0 0 0 0 0 0 0 0 0 0 0 0 0 0 0 0 0 0 0 0 0 0 0 0 0 0
0 0 0 0 0 0 0 0 0 0 0 0 0 0 0 0 0 0 0 0 0 0 0 0 0 0 0 0 0 0 0 0 0 0 0 0 0 0 0 0 0 0 0 0
0 0 0 0 0 0 0 0 0 0 0 0 0 0 0 0 0 0 0 0 0 0 0 0 0 0 0 0 0 0 0 0 0 0 0 0 0 0 0 0 0 0 0 0
0 0 0 0 0 0 0 0 0 0 0 0 0 0 0 0 0 0 0 0 0 0 0 0 0 0 0 0 0 0 0 0 0 0 0 0 0 0 0 0 0 0 0 0
0 0 0 0 0 0 0 0 0 0 0 0 0 0 0 0 0 0 0 0 0 0 0 0 0 0 0 0 0 0 0 0 0 0 0 0 0 0 0 0 0 0 0 0
0 0 0 0 0 0 0 0 0 0 0 0 0 0 0 0 0 0 0 0 0 0 0 0 0 0 0 0 0 0 0 0 0 0 0 0 0 0 0 0 0 0 0 0
0 0 0 0 0 0 0 0 0 0 0 0 0 0 0 0 0 0 0 0 0 0 0 0 0 0 0 0 0 0 0 0 0 0 0 0 0 0 0 0 0 0 0 0
Wind_Speed
6 4 6 7 6 9 9 7 7 4 3 1 5 7 7 7 6 6 5 4 3 2 1 2 2 3 4 5 5 6 7 8 8 8 9 9 9 9 9 9 9 9 9 10
7 5 6 8 8 9 9 8 7 6 4 2 5 6 7 7 6 6 5 4 2 2 1 2 3 4 5 5 5 6 7 8 8 9 9 9 9 9 9 9 9 9 9 10
7 2 7 8 6 7 8 7 7 7 1 6 6 7 7 7 6 6 4 3 2 1 1 2 3 3 5 5 6 6 7 8 8 9 9 9 10 10 10 10 9 9 9 9
7 5 7 2 2 3 6 6 6 5 2 5 5 5 5 5 6 6 5 4 2 1 1 2 2 3 4 6 6 7 7 8 8 9 9 10 10 10 10 9 9 9 9 10
7 8 6 3 4 5 6 6 5 6 4 5 5 5 7 7 6 5 4 3 2 2 1 1 3 4 5 6 7 7 7 8 8 9 10 10 10 10 10 9 10 9 9 9
7 8 6 0 5 4 4 6 4 6 6 7 8 7 4 8 7 6 5 4 3 2 2 2 3 4 6 7 7 7 8 8 8 9 9 10 10 10 10 9 9 10 9 9
9 9 6 4 7 7 6 2 5 6 7 9 9 3 6 7 7 7 6 5 4 3 3 2 3 4 6 7 7 7 8 8 9 9 9 10 9 9 9 9 9 9 10 9
6 8 3 8 7 6 3 4 4 5 7 9 7 6 7 7 7 7 6 5 4 4 3 3 3 4 6 7 7 7 7 8 9 9 9 8 8 9 8 9 9 9 8 9
4 3 4 4 4 2 2 3 3 5 6 8 8 8 8 8 7 7 6 5 4 4 4 3 4 5 7 6 6 7 8 9 9 9 9 8 8 9 8 7 7 8 8 8
6 4 3 3 5 5 5 6 5 5 6 8 9 9 9 8 7 7 6 5 4 4 4 4 4 5 6 6 6 7 8 9 8 9 9 8 6 7 7 7 7 8 8 8
7 6 5 2 2 4 5 6 5 5 6 8 9 9 9 8 7 6 5 5 5 5 5 5 5 5 5 5 6 7 8 8 8 8 8 7 7 6 7 7 6 8 9 9
6 5 7 6 6 6 5 5 5 6 7 8 8 8 8 7 6 6 5 5 5 5 5 5 5 5 5 5 5 7 8 7 7 7 6 7 7 7 5 8 8 10 12 11
7 9 10 9 9 6 5 5 5 5 6 7 7 7 7 6 6 5 5 6 5 5 5 5 6 6 5 5 5 6 8 8 7 7 7 7 7 8 8 6 8 11 11 11
6 7 6 5 6 5 4 3 3 4 5 5 5 5 5 5 5 5 5 5 5 5 5 6 6 6 5 5 5 7 8 6 6 7 7 7 7 7 7 8 8 6 5 8
5 4 5 5 5 4 2 0 2 4 4 5 4 4 4 4 5 4 4 4 4 5 6 6 7 6 5 5 6 7 7 6 5 7 7 7 7 7 7 8 7 7 7 3
5 5 5 5 6 5 4 3 1 1 2 3 3 3 3 4 4 4 3 4 5 6 6 6 7 7 5 6 6 7 6 5 6 7 7 7 6 6 7 7 7 7 6 6
5 7 8 8 8 8 7 5 4 3 2 1 1 2 3 3 3 4 4 5 6 7 6 7 8 6 6 6 7 6 6 4 6 7 6 6 6 6 6 7 7 6 6 5
7 7 8 8 8 8 8 7 7 6 5 4 2 2 3 4 4 4 4 5 6 7 7 7 7 6 7 7 6 6 6 6 5 6 5 5 6 6 6 6 6 7 6 4
7 8 8 8 8 7 7 7 7 6 6 5 4 3 4 4 4 5 5 6 7 8 7 6 6 8 8 6 5 6 6 6 6 5 5 4 6 6 6 6 6 6 6 5
8 8 8 8 8 8 7 7 7 6 6 5 5 4 4 5 5 5 6 7 6 5 5 4 6 7 7 6 6 7 6 5 5 5 5 6 5 5 5 5 5 6 5 5
7 7 8 8 8 7 7 7 7 7 7 6 6 6 6 6 6 6 6 7 5 4 5 4 6 6 6 4 8 7 5 5 5 5 5 5 5 5 5 5 5 5 5 5
5 6 7 7 7 7 7 7 7 8 8 7 7 7 7 7 7 7 6 6 6 2 4 5 4 3 3 5 6 5 5 5 5 4 4 5 5 5 5 5 4 4 5 5
4 5 6 7 7 7 8 7 8 7 7 8 7 8 8 8 8 8 7 5 6 3 5 4 2 1 4 7 5 5 5 4 4 4 4 4 5 4 4 5 4 4 4 5
4 5 6 6 7 7 8 8 7 6 7 7 6 7 7 7 6 6 7 5 4 4 5 1 1 3 7 6 5 4 4 4 4 4 4 4 4 4 3 4 4 4 4 5
5 5 6 6 7 6 6 7 7 7 7 6 7 7 7 6 7 7 7 8 5 4 5 1 5 6 6 5 5 4 3 3 3 4 4 4 4 3 3 3 3 3 3 3
5 5 5 6 6 6 7 7 7 7 7 7 8 7 7 7 8 7 6 7 8 5 6 4 3 5 5 5 4 4 3 2 2 3 3 3 3 3 2 3 4 3 3 3
6 6 5 6 6 6 6 7 7 8 8 8 9 9 9 8 8 8 9 8 7 6 5 5 4 3 3 3 3 2 2 1 1 2 2 2 2 2 2 3 3 2 2 2
Wind_Direction
284 291 270 266 241 216 234 270 292 309 304 201 176 188 181 178 182 186 189 195 199 223 262 290 309 315 320 322 323 319 316 317 320 318 316 312 310 308 306 299 294 294 293 289
256 251 263 260 254 240 238 253 263 274 280 114 144 169 175 184 193 203 204 203 204 222 267 297 316 322 325 319 319 313 312 316 320 317 316 314 311 309 306 302 300 297 292 291
264 243 258 249 245 237 232 235 253 266 300 144 175 185 192 193 202 211 209 204 214 248 280 303 313 320 314 315 311 307 309 313 316 316 315 315 313 311 309 305 301 297 294 290
265 254 258 32 85 264 258 250 244 260 217 187 195 181 190 197 205 207 202 203 203 224 254 286 302 302 305 307 304 304 306 311 316 317 316 315 311 310 308 305 302 298 295 292
262 254 256 216 192 214 234 252 229 231 216 176 161 183 199 192 200 200 191 190 188 201 239 279 291 302 304 302 305 306 309 315 319 317 313 311 310 310 309 306 302 299 292 291
244 263 268 237 126 164 234 241 181 198 196 178 184 227 159 155 176 182 180 179 183 190 225 258 282 296 295 301 309 312 316 318 317 311 308 306 307 307 306 303 298 298 297 293
243 253 259 96 134 177 234 40 132 187 190 188 202 255 107 145 162 173 177 179 183 202 237 264 280 283 289 302 310 315 315 312 308 306 304 300 302 303 303 300 300 297 297 294
237 247 252 123 164 214 359 80 170 194 195 196 197 178 161 163 167 174 180 185 193 208 236 255 267 272 283 296 309 309 305 303 304 306 304 305 303 301 300 299 295 293 292 294
274 310 49 186 221 267 329 244 225 215 203 198 200 192 184 180 180 184 189 193 206 220 240 252 257 265 281 297 304 301 301 302 305 306 304 300 300 301 299 297 296 301 301 303
267 263 275 246 248 259 256 256 250 232 211 202 204 196 189 186 187 189 191 194 207 228 248 259 265 267 277 289 294 293 296 301 302 302 302 307 302 299 305 307 307 307 307 308
261 278 277 222 289 292 271 255 241 225 209 203 202 197 190 188 191 193 193 192 205 224 245 260 266 269 273 281 286 289 295 298 300 302 308 306 302 301 300 304 314 304 307 308
290 332 310 315 327 314 284 256 238 219 203 198 198 197 191 192 189 191 195 199 212 227 245 257 262 265 270 275 277 286 292 299 306 309 313 308 309 305 262 258 269 260 259 272
300 307 303 298 300 303 287 263 234 211 203 196 193 196 192 191 190 193 200 209 219 232 243 253 260 265 268 271 272 278 288 298 304 307 309 307 308 310 313 293 246 246 247 247
304 295 289 301 320 326 307 271 216 188 183 181 177 185 191 189 189 199 210 217 224 234 245 252 257 262 265 260 262 272 280 283 284 293 300 303 304 306 306 310 313 309 251 227
344 326 313 328 333 338 335 253 176 169 164 163 160 172 189 198 204 213 216 217 225 238 245 252 256 261 261 257 260 270 279 287 298 302 299 298 301 301 302 306 308 310 316 292
11 29 35 34 31 29 30 38 71 133 164 171 171 183 199 215 229 234 221 214 229 244 249 253 257 259 253 253 260 262 262 253 271 291 295 298 301 307 309 308 308 310 315 323
46 48 44 43 43 40 40 38 31 18 12 349 280 235 223 225 233 243 244 236 239 248 250 252 254 253 244 242 253 266 276 264 232 267 283 299 307 307 305 302 306 311 316 335
51 48 46 42 40 39 35 34 35 30 17 3 331 294 274 265 261 262 263 259 256 257 256 254 250 246 239 236 244 264 268 275 279 286 295 301 307 303 300 302 306 310 313 313
55 51 47 43 38 35 30 26 22 20 14 5 347 327 309 300 294 288 277 263 261 265 264 256 235 236 237 230 234 245 259 271 278 283 288 288 278 286 297 304 307 312 317 323
50 42 36 33 29 24 20 13 5 1 358 354 343 331 322 320 310 296 285 273 272 288 294 272 238 236 238 221 223 247 253 264 275 284 287 289 291 295 298 306 313 320 323 325
40 32 26 22 18 15 11 2 354 347 344 339 332 324 319 317 309 300 290 287 293 295 284 247 240 244 236 222 216 243 249 257 266 274 281 288 291 296 302 307 313 317 322 325
27 19 13 9 5 1 356 348 343 337 334 331 328 325 320 316 313 303 292 297 311 328 280 266 256 253 244 236 233 239 244 252 258 267 277 285 290 296 302 305 306 315 320 322
6 3 359 357 353 345 342 341 341 336 333 330 328 328 325 322 317 312 311 324 318 321 282 289 325 200 221 236 243 236 240 253 262 268 274 279 286 294 301 301 304 316 321 322
342 339 339 339 335 329 331 334 332 327 323 317 323 331 322 316 317 320 325 333 328 308 297 326 178 208 229 247 248 244 243 247 256 265 270 273 277 288 302 305 307 316 322 325
323 320 322 320 314 319 319 311 309 311 313 320 322 327 324 327 323 325 324 322 321 297 298 247 189 210 235 251 249 246 245 254 273 281 274 280 285 293 303 298 302 315 322 329
302 302 318 312 311 303 303 309 314 319 319 320 321 324 327 326 320 315 312 313 316 309 297 295 264 229 244 248 246 250 251 228 237 259 278 281 281 291 302 304 308 314 322 335
279 279 276 283 291 302 308 311 311 315 318 321 323 323 321 318 316 316 315 312 312 309 307 304 299 279 269 263 252 250 250 252 261 273 279 278 282 286 297 292 295 303 319 352